Location: Austin, TX
(30.3000°N, 97.7500°W)
Time: 20:55:03
(UTC-06:00)

Cosmos 1666 - Visible Passes

Search period start: 05 December 2016 00:00
Search period end: 15 December 2016 00:00
Orbit: 502 x 527 km, 82.5° (Epoch: 05 December)

Date Brightness Start Highest point End Pass type
(mag) Time Alt. Az. Time Alt. Az. Time Alt. Az.
07 Dec 5.7 20:05:55 12° SW 20:05:55 12° SW 20:06:14 10° SW visible
08 Dec 4.6 18:12:13 11° E 18:12:13 11° E 18:13:16 10° E visible
08 Dec 4.5 19:46:52 28° WNW 19:47:38 31° W 19:51:05 10° SSW visible
09 Dec 4.0 19:28:34 10° NNW 19:32:12 39° W 19:35:50 10° SSW visible
10 Dec 3.5 19:13:00 10° NNW 19:16:46 51° W 19:20:32 10° S visible
11 Dec 3.0 18:57:27 10° NNW 19:01:19 68° W 19:05:10 10° S visible
12 Dec 2.7 18:41:59 10° N 18:45:52 88° W 18:49:45 10° S visible
13 Dec 4.2 06:50:39 10° SSE 06:54:10 40° E 06:57:43 10° NNE visible
13 Dec 2.6 18:26:31 10° N 18:30:24 71° E 18:34:16 10° SSE visible
14 Dec 4.7 06:35:23 10° SSE 06:38:43 31° E 06:42:05 10° NNE visible
14 Dec 2.8 18:11:07 10° N 18:14:55 54° E 18:18:44 10° SSE visible
